[[{"header":{"parameterUnit":"m.s-1","parameterCategory":1,"la1":30.2991,"la2":30.254,"lo1":-89.0895,"lo2":-89.0444,"dy":0.0017,"dx":0.0017,"nx":28,"ny":28,"refTime":"2025-08-08T03:00:00:Z","depth":0,"parameterNumber":2,"parameterNumberName":"U-component_of_WINDS"},"data":[0,0,0,0,0,0,0,0,0,0,0,0,0,0,0,0,0,0,0,0,0,0,0,0,0,0,0,0,0,0,0,0,0,0,0,0,0,0,0,0,0,0,0,0,0,0,0,0,0,0,0,0,0,0,0,0,0,0,0.7957,0.7957,0,0.7992,0.7992,0.7992,0.8022,0.8022,0.8022,0.8023,0.8057,0.8058,0.8058,0,0,0,0,0,0,0,0,0,0,0,0,0,0.7914,0.7914,0.7957,0.7957,0.7957,0.7992,0.7992,0.7993,0.8022,0.8022,0.8022,0.8023,0.8057,0.8058,0.8058,0,0,0,0,0,0,0,0,0,0,0,0,0,0.7939,0.7915,0.7956,0.7976,0.7978,0.7992,0.7992,0.7993,0.8022,0.8022,0.8023,0.8023,0.8057,0.8058,0.8059,0.8055,0,0,0.8061,0.8062,0,0,0,0,0,0,0,0,0.7937,0.794,0.7973,0.7975,0.7977,0.8003,0.799,0.8013,0.8022,0.8005,0.8023,0.8023,0.8039,0.8041,0.8047,0.8056,0.8058,0.8062,0.8062,0.8062,0.8063,0,0,0,0,0,0,0,0.7936,0.7939,0.797,0.7973,0.7976,0.7983,0.7987,0.7994,0.8019,0.8007,0.8009,0.8013,0.804,0.8046,0.8048,0.8058,0.8061,0.8062,0.8063,0.8063,0.8067,0.8066,0,0,0,0,0,0,0.7931,0.7937,0.7969,0.7971,0.7958,0.7983,0.7988,0.7994,0.8019,0.8023,0.8012,0.8014,0.8044,0.8046,0.8049,0.8046,0.8062,0.8063,0.8064,0.8067,0.8067,0.8066,0,0,0,0,0,0,0.793,0.7934,0.7968,0.7955,0.796,0.7983,0.799,0.7995,0.8,0.8023,0.8027,0.8014,0.8044,0.8048,0.8053,0.8048,0.8064,0.8065,0.8068,0.8067,0.8067,0.804,0,0,0,0,0,0,0.7929,0.7933,0.7932,0.7955,0.7961,0.7972,0.799,0.7995,0.8002,0.8005,0.8025,0.8029,0.8045,0.8052,0.8054,0.8049,0.8065,0.8069,0.8068,0.8067,0.8042,0.8039,0.8036,0,0,0,0,0,0.7927,0.7923,0.7932,0.7936,0.796,0.7971,0.7975,0.7993,0.8001,0.8,0.8015,0.8029,0.8048,0.8052,0.8055,0.805,0.8069,0.8068,0.8067,0.8043,0.8039,0.8036,0,0,0,0,0,0,0.7898,0.7926,0.7936,0.794,0.7953,0.7976,0.7976,0.7989,0.8,0.8001,0.8023,0.8028,0.8031,0.8041,0.8045,0.8048,0.806,0.806,0.8041,0.8038,0.8035,0.8032,0.8066,0,0,0,0,0,0.7892,0.79,0.7924,0.7924,0.7931,0.7952,0.7958,0.7971,0.7985,0.7991,0.8006,0.8019,0.8028,0.8034,0.8043,0.8044,0.8048,0.8042,0.8039,0.8037,0.8036,0.8037,0.8034,0.8063,0.8063,0.8063,0,0,0.788,0.7896,0.79,0.7919,0.7931,0.7938,0.7956,0.7963,0.7968,0.7992,0.7998,0.801,0.8026,0.8029,0.8031,0.8037,0.8029,0.8035,0.8033,0.8034,0.8035,0.8032,0.803,0.8062,0.8062,0.8062,0,0,0.7861,0.7874,0.7876,0.7888,0.7906,0.792,0.7921,0.7942,0.7951,0.7958,0.7976,0.7982,0.7997,0.8008,0.8016,0.8001,0.8014,0.8004,0.7989,0.799,0.7987,0.7985,0.798,0.7978,0.8003,0.8003,0.8003,0,0.7844,0.7855,0.7876,0.7881,0.7889,0.7911,0.7913,0.7924,0.7943,0.7948,0.7956,0.7975,0.7988,0.7993,0.799,0.7995,0.7996,0.8001,0.7986,0.7984,0.7983,0.7978,0.7976,0.8002,0.8002,0.8002,0.8002,0,0.7832,0.784,0.7839,0.7859,0.7867,0.787,0.7891,0.7896,0.7909,0.7922,0.7929,0.7945,0.7958,0.796,0.7972,0.7968,0.7971,0.7982,0.7995,0.7978,0.7974,0.7972,0.8,0.8,0.8,0.8001,0,0,0.7796,0.7827,0.7826,0.7835,0.7857,0.7863,0.7868,0.7881,0.7885,0.7898,0.7903,0.7915,0.7925,0.7934,0.7947,0.7948,0.7935,0.7959,0.7959,0.7953,0.7931,0.7922,0.7919,0.7944,0.7944,0.7944,0.7929,0,0.778,0.779,0.7809,0.7813,0.782,0.7842,0.7846,0.7859,0.7872,0.788,0.7894,0.7902,0.7915,0.792,0.7922,0.7936,0.7931,0.7938,0.7947,0.7948,0.7942,0.7917,0.7908,0.7894,0.7928,0.7927,0.7927,0,0.7763,0.7776,0.778,0.7802,0.7805,0.7809,0.7823,0.783,0.7846,0.7855,0.7864,0.7879,0.7885,0.7897,0.7905,0.7909,0.7914,0.7922,0.7922,0.7923,0.7936,0.7917,0.789,0.7887,0.7925,0.7925,0.7925,0,0.7736,0.7754,0.7759,0.7766,0.7791,0.7793,0.7803,0.7819,0.7826,0.7838,0.7843,0.7855,0.7862,0.7871,0.7889,0.7896,0.7894,0.7908,0.7902,0.7901,0.79,0.79,0.7872,0.7904,0.7904,0.7904,0.7904,0,0.7716,0.7718,0.7747,0.775,0.7753,0.7774,0.7776,0.7788,0.7803,0.7808,0.7828,0.7832,0.7856,0.7863,0.7877,0.7881,0.7884,0.7891,0.7895,0.7889,0.7888,0.7893,0.7894,0.7904,0.7904,0.7904,0.7904,0,0.7686,0.7705,0.7712,0.7736,0.7741,0.7742,0.7762,0.7766,0.778,0.7787,0.7789,0.7811,0.7821,0.784,0.7854,0.7864,0.7865,0.7871,0.7859,0.7862,0.7854,0.7854,0.7828,0.7825,0.7859,0.7859,0.7859,0,0.7672,0.7674,0.7698,0.7703,0.7713,0.7721,0.7729,0.775,0.7756,0.7775,0.7776,0.7787,0.7797,0.7812,0.7828,0.784,0.7846,0.7836,0.7848,0.7842,0.7846,0.7845,0.7845,0.7834,0.7833,0.7833,0.7832,0,0.7645,0.7654,0.7665,0.7678,0.7686,0.7698,0.771,0.7713,0.7737,0.7744,0.7754,0.7762,0.7777,0.7788,0.7802,0.7812,0.7826,0.7829,0.7828,0.7822,0.7815,0.7818,0.7852,0.7829,0.7829,0.783,0.783,0.783,0.7622,0.7625,0.7642,0.7653,0.7664,0.7675,0.768,0.7695,0.7704,0.7718,0.773,0.7739,0.7755,0.7775,0.7785,0.7792,0.7799,0.7797,0.7797,0.7796,0.7794,0.7814,0.7795,0.7795,0.7795,0.7795,0.7795,0,0.7596,0.7608,0.7618,0.7634,0.7643,0.7656,0.767,0.7676,0.7684,0.7698,0.7707,0.7719,0.773,0.7747,0.7759,0.7762,0.7768,0.7764,0.7764,0.7766,0.7787,0.7787,0.7758,0.7758,0.7758,0.7758,0.7758,0.7758,0.7583,0.7588,0.76,0.7611,0.7623,0.7633,0.764,0.765,0.7661,0.7674,0.7683,0.7694,0.771,0.7723,0.7733,0.7738,0.7741,0.7735,0.7741,0.7761,0.7764,0.7768,0.7767,0.7735,0.7735,0.772,0.7719,0.7719]},{"header":{"parameterUnit":"m.s-1","parameterCategory":1,"la1":30.2991,"la2":30.254,"lo1":-89.0895,"lo2":-89.0444,"dy":0.0017,"dx":0.0017,"nx":28,"ny":28,"refTime":"2025-08-08T03:00:00:Z","depth":0,"parameterNumber":3,"parameterNumberName":"V-component_of_WINDS"},"data":[0,0,0,0,0,0,0,0,0,0,0,0,0,0,0,0,0,0,0,0,0,0,0,0,0,0,0,0,0,0,0,0,0,0,0,0,0,0,0,0,0,0,0,0,0,0,0,0,0,0,0,0,0,0,0,0,0,0,2.1194,2.1194,0,2.119,2.119,2.119,2.1181,2.1181,2.1181,2.1181,2.1176,2.1176,2.1176,0,0,0,0,0,0,0,0,0,0,0,0,0,2.1192,2.1192,2.1194,2.1194,2.1194,2.119,2.119,2.119,2.1181,2.1181,2.1181,2.1181,2.1176,2.1176,2.1176,0,0,0,0,0,0,0,0,0,0,0,0,0,2.1191,2.1192,2.1194,2.1189,2.1188,2.119,2.119,2.119,2.1181,2.1181,2.1181,2.118,2.1176,2.1176,2.1177,2.1182,0,0,2.1177,2.1177,0,0,0,0,0,0,0,0,2.1191,2.1191,2.119,2.1189,2.1189,2.1186,2.1188,2.1187,2.1181,2.1184,2.1181,2.118,2.118,2.1179,2.1179,2.1182,2.1182,2.1177,2.1177,2.1177,2.1177,0,0,0,0,0,0,0,2.1191,2.1191,2.1192,2.119,2.1189,2.1186,2.1186,2.1188,2.1183,2.1184,2.1183,2.1183,2.1179,2.1179,2.1179,2.1182,2.1177,2.1177,2.1177,2.1177,2.1189,2.1189,0,0,0,0,0,0,2.1192,2.1191,2.1192,2.1192,2.1189,2.1187,2.1186,2.1187,2.1183,2.1182,2.1183,2.1182,2.1179,2.1179,2.1179,2.1186,2.1177,2.1177,2.1177,2.1189,2.1189,2.1189,0,0,0,0,0,0,2.1192,2.1192,2.1192,2.1191,2.1191,2.1187,2.1188,2.1187,2.1187,2.1183,2.1182,2.1184,2.1179,2.1179,2.1182,2.1185,2.1177,2.1177,2.1188,2.1189,2.1189,2.1199,0,0,0,0,0,0,2.1192,2.1192,2.1195,2.1192,2.1191,2.1195,2.1188,2.1187,2.1187,2.1186,2.1183,2.1183,2.1179,2.1181,2.1182,2.1185,2.1177,2.1188,2.1188,2.1189,2.1198,2.12,2.1201,0,0,0,0,0,2.1192,2.1198,2.1195,2.1195,2.1195,2.1196,2.1196,2.1191,2.1188,2.119,2.1187,2.1183,2.1185,2.1182,2.1182,2.1186,2.1188,2.1188,2.1189,2.1198,2.1199,2.1201,0,0,0,0,0,0,2.1202,2.1197,2.1194,2.1199,2.1198,2.1194,2.1197,2.1193,2.1193,2.1192,2.1187,2.1186,2.1189,2.1188,2.1184,2.1191,2.1185,2.1186,2.1192,2.1194,2.1195,2.1195,2.1177,0,0,0,0,0,2.1204,2.1206,2.1202,2.1206,2.1206,2.1202,2.1202,2.1199,2.1197,2.1196,2.1194,2.1192,2.1192,2.1193,2.1193,2.1198,2.1197,2.12,2.1201,2.1202,2.1203,2.1205,2.1207,2.1191,2.1191,2.1191,0,0,2.121,2.1208,2.1209,2.1208,2.1207,2.1208,2.1201,2.1203,2.1204,2.1197,2.1199,2.1197,2.1195,2.1198,2.12,2.1197,2.1207,2.1203,2.1204,2.1204,2.1206,2.1207,2.1209,2.1192,2.1191,2.1191,0,0,2.1221,2.1219,2.1223,2.1222,2.122,2.1216,2.1217,2.1214,2.1212,2.1215,2.1209,2.121,2.121,2.1209,2.1208,2.1218,2.1213,2.1218,2.1224,2.1226,2.1228,2.1229,2.1232,2.1233,2.1218,2.1218,2.1218,0,2.1228,2.123,2.1225,2.1228,2.1227,2.122,2.1224,2.1223,2.1221,2.122,2.1217,2.1217,2.1215,2.1218,2.1221,2.122,2.1221,2.1218,2.1228,2.1229,2.123,2.1233,2.1234,2.1219,2.1219,2.1219,2.1219,0,2.1239,2.1241,2.1244,2.1242,2.1242,2.1245,2.124,2.124,2.1237,2.1234,2.1236,2.1233,2.1232,2.1232,2.1229,2.1235,2.1233,2.1229,2.1224,2.1232,2.1235,2.1236,2.122,2.1219,2.1219,2.1219,0,0,2.1258,2.1252,2.1254,2.1252,2.1249,2.125,2.1252,2.1251,2.1252,2.125,2.1252,2.1252,2.1248,2.1247,2.1243,2.1245,2.1252,2.124,2.124,2.1243,2.1258,2.1262,2.1263,2.1249,2.1249,2.1249,2.1258,0,2.1268,2.1272,2.1267,2.1272,2.1273,2.1266,2.1267,2.1265,2.1262,2.1262,2.1259,2.1259,2.1254,2.1253,2.1254,2.1251,2.1255,2.125,2.125,2.125,2.1252,2.1265,2.1269,2.1278,2.1259,2.126,2.126,0,2.1282,2.1281,2.1285,2.1281,2.1281,2.1283,2.1282,2.1282,2.1279,2.1277,2.1275,2.1271,2.1272,2.1266,2.1267,2.1264,2.1263,2.1262,2.1262,2.1262,2.1256,2.1266,2.128,2.1282,2.1261,2.1261,2.1261,0,2.1295,2.1294,2.1297,2.1296,2.1292,2.1293,2.1291,2.1288,2.1287,2.1286,2.1285,2.1284,2.1283,2.1282,2.1276,2.1272,2.1278,2.1272,2.1276,2.1276,2.1279,2.1279,2.1294,2.1277,2.1277,2.1277,2.1277,0,2.1308,2.1311,2.1303,2.1305,2.1308,2.1302,2.1305,2.1302,2.1299,2.13,2.1293,2.1294,2.1287,2.1286,2.1282,2.1284,2.1283,2.1281,2.128,2.1283,2.1283,2.1283,2.1282,2.1278,2.1277,2.1277,2.1277,0,2.1324,2.1318,2.1321,2.1316,2.1314,2.1317,2.1312,2.1314,2.131,2.1311,2.131,2.1304,2.1304,2.1298,2.1296,2.1293,2.1296,2.1294,2.1298,2.1297,2.1302,2.1302,2.1318,2.1319,2.1301,2.1302,2.1302,0,2.1333,2.1335,2.133,2.133,2.1328,2.1328,2.1328,2.1321,2.1321,2.1317,2.1318,2.1317,2.1316,2.1315,2.131,2.1308,2.1306,2.1312,2.1306,2.1308,2.1307,2.1307,2.1307,2.1313,2.1314,2.1314,2.1314,0,2.1349,2.1346,2.1346,2.1344,2.1344,2.1342,2.134,2.134,2.1333,2.1333,2.1332,2.1331,2.1328,2.1327,2.1324,2.1322,2.1317,2.1315,2.1316,2.1319,2.1321,2.1321,2.1302,2.1315,2.1315,2.1315,2.1315,2.1315,2.1362,2.1364,2.1361,2.136,2.1358,2.1356,2.1356,2.1352,2.1351,2.1349,2.1345,2.1345,2.1341,2.1336,2.1334,2.1333,2.133,2.1332,2.1332,2.1333,2.1334,2.1321,2.1333,2.1333,2.1333,2.1333,2.1333,0,2.1379,2.1376,2.1376,2.1373,2.1372,2.1367,2.1364,2.1364,2.1364,2.1361,2.1359,2.1358,2.1356,2.1351,2.1349,2.1349,2.1347,2.1349,2.1349,2.1349,2.1337,2.1336,2.1351,2.1351,2.1351,2.1351,2.1351,2.1351,2.1388,2.1391,2.1387,2.1388,2.1385,2.1384,2.1383,2.1381,2.1378,2.1377,2.1376,2.1372,2.1368,2.1365,2.1363,2.1362,2.1361,2.1364,2.1362,2.1351,2.1349,2.1348,2.1347,2.1364,2.1364,2.1374,2.1374,2.1374]}]]